This is the latest recevied weather packets stored in our database for station/object KN6WGU. If no packets are shown the sender has not sent any weather packets the latest 10 day(s).
| Time | Temp. | Humidity | Pressure | Rain* | Wind** | Luminosity | Snow |
|---|---|---|---|---|---|---|---|
| 1788387198 | 32.78° C | 61% | 1006.6 hPa | 0 mm | - | 49 W/m² | - |
| 1788386894 | 32.78° C | 61% | 1006.7 hPa | 0 mm | - | 51 W/m² | - |
| 1788386593 | 32.78° C | 60% | 1006.7 hPa | 0 mm | - | 59 W/m² | - |
| 1788386288 | 33.33° C | 60% | 1006.6 hPa | 0 mm | - | 60 W/m² | - |
| 1788386001 | 33.33° C | 61% | 1006.9 hPa | 0 mm | - | 60 W/m² | - |
| 1788385680 | 33.33° C | 59% | 1006.9 hPa | 0 mm | - | 63 W/m² | - |
| 1788385378 | 33.33° C | 60% | 1006.9 hPa | 0 mm | - | 66 W/m² | - |
| 1788385074 | 33.33° C | 60% | 1006.8 hPa | 0 mm | - | 67 W/m² | - |
| 1788384769 | 33.33° C | 60% | 1007 hPa | 0 mm | - | 72 W/m² | - |
| 1788384467 | 33.33° C | 58% | 1006.8 hPa | 0 mm | - | 78 W/m² | - |
| 1788384164 | 33.89° C | 60% | 1006.9 hPa | 0 mm | - | 77 W/m² | - |
| 1788383860 | 33.89° C | 59% | 1007 hPa | 0 mm | - | 90 W/m² | - |
| 1788383556 | 33.89° C | 59% | 1007 hPa | 0 mm | - | 93 W/m² | - |
| 1788383250 | 33.89° C | 58% | 1007.1 hPa | 0 mm | - | 89 W/m² | - |
| 1788382945 | 33.89° C | 58% | 1007.1 hPa | 0 mm | - | 97 W/m² | - |
| 1788382643 | 33.89° C | 58% | 1007.2 hPa | 0 mm | - | 114 W/m² | - |
| 1788382339 | 34.44° C | 56% | 1007.2 hPa | 0 mm | - | 106 W/m² | - |
| 1788382034 | 35° C | 57% | 1007.2 hPa | 0 mm | - | 107 W/m² | - |
| 1788381729 | 35.56° C | 55% | 1007.4 hPa | 0 mm | - | 101 W/m² | - |
| 1788381423 | 35.56° C | 56% | 1007.5 hPa | 0 mm | - | 223 W/m² | - |
| 1788381118 | 35.56° C | 53% | 1007.5 hPa | 0 mm | - | 390 W/m² | - |
| 1788380813 | 35.56° C | 52% | 1007.4 hPa | 0 mm | - | 371 W/m² | - |
| 1788380510 | 35° C | 53% | 1007.4 hPa | 0 mm | - | 408 W/m² | - |
| 1788380206 | 35° C | 54% | 1007.5 hPa | 0 mm | - | 427 W/m² | - |
| 1788379904 | 35.56° C | 56% | 1007.6 hPa | 0 mm | - | 431 W/m² | - |
* Rain latest hour (hover to see other rain measurements)
** Current wind speed in m/s (hover to see current wind gust speed)